Volver al catálogo

DMSP 5D-2 F11 DEB

ActivoPO
NORAD 28325·DEBRIS·🇺🇸 United States

Lanzado Nov 28, 1991 desde Vandenberg Space Force Base

Loading…

Próximos Pases (próximas 24 horas)

TLE

ActualizadoSource: Space-Track

Época: Sep 14, 2026, 16:15 UTC

1 28325U 91082AN  26257.67772581  .00030749  00000-0  31467-2 0  9991
2 28325  98.5591 155.0880 0019477 188.2007 201.7419 14.90313657156162

Sigue DMSP 5D-2 F11 DEB en tiempo real con AllMySat

Download on the App Store